Location: Maccacari
(45.1333°N, 11.1333°E)
Time: 20:50:53
(UTC+00:00)

Tiros 1 despin weight - All Passes

Search period start: 21 January 2021 00:00
Search period end: 31 January 2021 00:00
Orbit: 594 x 641 km, 48.2° (Epoch: 20 January)

Date Brightness Start Highest point End Pass type
(mag) Time Alt. Az. Time Alt. Az. Time Alt. Az.
21 Jan - 14:27:27 10° SW 14:31:41 40° SSE 14:35:53 10° ENE daylight
21 Jan - 16:08:36 10° W 16:13:05 73° NNW 16:17:32 10° ENE daylight
21 Jan - 17:50:32 10° WNW 17:54:57 59° N 17:59:19 10° E visible
21 Jan - 19:32:12 10° WNW 19:36:38 72° SSW 19:41:01 10° ESE visible
21 Jan - 21:14:30 10° W 21:17:38 19° SW 21:20:44 10° S night (unlit)
22 Jan - 13:04:02 10° S 13:06:59 17° SE 13:09:55 10° E daylight
22 Jan - 14:43:28 10° SW 14:47:57 66° SSE 14:52:24 10° ENE daylight
22 Jan - 16:25:08 10° W 16:29:36 60° N 16:34:00 10° ENE daylight
22 Jan - 18:07:01 10° WNW 18:11:27 69° NNE 18:15:53 10° E visible
22 Jan - 19:48:41 10° WNW 19:52:55 45° SSW 19:57:08 10° SE visible
23 Jan - 13:19:07 10° SSW 13:23:04 30° SE 13:27:00 10° E daylight
23 Jan - 14:59:47 10° WSW 15:04:20 86° NNW 15:08:49 10° ENE daylight
23 Jan - 16:41:42 10° W 16:46:08 57° N 16:50:31 10° E visible
23 Jan - 18:23:26 10° WNW 18:27:55 90° S 18:32:20 10° ESE visible
23 Jan - 20:05:23 10° W 20:09:06 26° SW 20:12:47 10° SSE visible
24 Jan - 11:56:50 10° SSE 11:58:29 12° SE 12:00:07 10° ESE daylight
24 Jan - 13:34:52 10° SW 13:39:16 50° SSE 13:43:37 10° ENE daylight
24 Jan - 15:16:17 10° W 15:20:48 67° NNW 15:25:14 10° ENE daylight
24 Jan - 16:58:13 10° WNW 17:02:40 62° N 17:07:04 10° E visible
24 Jan - 18:39:52 10° WNW 18:44:16 60° SSW 18:48:37 10° SE visible
24 Jan - 20:22:39 10° W 20:25:08 15° SW 20:27:36 10° S visible
25 Jan - 12:11:00 10° S 12:14:30 22° SE 12:17:58 10° E daylight
25 Jan - 13:51:02 10° WSW 13:55:35 78° SSE 14:00:05 10° ENE daylight
25 Jan - 15:32:50 10° W 15:37:19 58° N 15:41:43 10° ENE daylight
25 Jan - 17:14:40 10° WNW 17:19:09 76° NNE 17:23:35 10° ESE visible
25 Jan - 18:56:25 10° W 19:00:31 36° SW 19:04:33 10° SSE visible
26 Jan - 12:26:24 10° SSW 12:30:38 37° SE 12:34:48 10° ENE daylight
26 Jan - 14:07:26 10° WSW 14:12:00 77° NNW 14:16:30 10° ENE daylight
26 Jan - 15:49:23 10° WNW 15:53:51 58° N 15:58:15 10° E daylight
26 Jan - 17:31:05 10° WNW 17:35:34 78° SSW 17:39:59 10° ESE visible
26 Jan - 19:13:16 10° W 19:16:38 21° SW 19:19:57 10° S visible
27 Jan - 11:03:14 10° S 11:05:57 16° SE 11:08:39 10° E daylight
27 Jan - 12:42:21 10° SW 12:46:52 61° SSE 12:51:20 10° ENE daylight
27 Jan - 14:23:58 10° W 14:28:30 62° N 14:32:57 10° ENE daylight
27 Jan - 16:05:52 10° WNW 16:10:22 66° NNE 16:14:49 10° E daylight
27 Jan - 17:47:33 10° WNW 17:51:53 49° SSW 17:56:09 10° SE visible
27 Jan - 19:31:15 10° WSW 19:32:37 11° SW 19:33:58 10° SSW visible
28 Jan - 11:18:07 10° SSW 11:22:01 27° SE 11:25:52 10° E daylight
28 Jan - 12:58:38 10° WSW 13:03:14 89° SSE 13:07:46 10° ENE daylight
28 Jan - 14:40:32 10° W 14:45:01 57° N 14:49:27 10° E daylight
28 Jan - 16:22:18 10° WNW 16:26:50 86° NNE 16:31:17 10° ESE daylight
28 Jan - 18:04:12 10° W 18:08:04 29° SW 18:11:54 10° SSE visible
29 Jan - 09:56:31 10° SE 09:57:27 11° SE 09:58:23 10° ESE daylight
29 Jan - 11:33:47 10° SW 11:38:11 46° SSE 11:42:33 10° ENE daylight
29 Jan - 13:15:06 10° W 13:19:41 69° NNW 13:24:11 10° ENE daylight
29 Jan - 14:57:03 10° WNW 15:01:34 61° N 15:06:00 10° E daylight
29 Jan - 16:38:44 10° WNW 16:43:13 66° SSW 16:47:36 10° SE daylight
29 Jan - 18:21:18 10° W 18:24:08 17° SW 18:26:56 10° S visible
30 Jan - 10:10:04 10° S 10:13:26 20° SE 10:16:47 10° E daylight
30 Jan - 11:49:53 10° WSW 11:54:29 73° SSE 11:59:02 10° ENE daylight
30 Jan - 13:31:40 10° W 13:36:11 59° N 13:40:39 10° ENE daylight
30 Jan - 15:13:31 10° WNW 15:18:04 73° NNE 15:22:32 10° E daylight
30 Jan - 16:55:15 10° WNW 16:59:28 40° SSW 17:03:37 10° SE visible
